User: anonymous   Login
Location: Hokitika
(42.7170°S, 170.9670°E)
Time: 19:15:25
(UTC+13:00)
Language:

Cosmos 292 Rocket - Orbit

View from above orbital plane
View from above orbital plane
View from above satellite
View from above satellite

Ground track
Ground track

The orbit data is extracted from the following two-line orbital elements,

1  4071U 69070B   19290.48091021 -.00000007  00000-0  45971-5 0  9999
2  4071  74.0468 288.9791 0013645  47.0318 313.1990 14.62798592662473
Epoch (UTC): 17 October 2019 11:32:30
Eccentricity: 0.0013645
inclination: 74.0468°
perigee height: 674 km
apogee height: 694 km
right ascension of ascending node: 288.9791°
argument of perigee: 47.0318°
revolutions per day: 14.62798592
mean anomaly at epoch: 313.1990°
orbit number at epoch: 66247

The dashed part of the orbit path shows where the satellite is in the earth's shadow,  

DLR